STARLINK-34390

Last updated on Sat Jul 19 2025 00:02:07 GMT+0000 (Coordinated Universal Time)

1 64666U 25139C 25199.58335648 -.01641105 00000+0 -33361-1 0 9992 2 64666 53.1595 138.1858 0001295 98.4866 81.5443 15.48913403 4445
UTC large
Height (km)
Speed (km/s)
/
Latitude / Longitude
Inclination (degrees)
Orbital Period (minutes)
Azimuth
Elevation
Range (km)
Doppler Factor

Next 0 passes for location: London (51.5072 / 0.1276)

Sorry there are no passes over London.